Regional Weather Roundup
Issued by NWS

Home | Current Version | Previous Version | Graphics & Text | Print | Product List | Glossary Off
Versions: 1 2 3 4 5 6 7 8 9 10 11 12 13 14 15 16 17 18 19 20 21 22 23 24 25 26 27 28 29 30 31 32 33 34 35 36 37 38 39 40 41 42 43 44 45 46 47 48 49 50

000
ASUS45 KBOU 231510
RWRCO

WEATHER ROUNDUP FOR COLORADO
NATIONAL WEATHER SERVICE PUEBLO CO
900 AM MDT MON APR 23 2018

NOTE: "FAIR" INDICATES FEW OR NO CLOUDS BELOW 12000 FEET WITH NO
SIGNIFICANT WEATHER AND/OR OBSTRUCTIONS TO VISIBILITY.

COZ001>005-013-030-031-231600-
...NORTHWEST COLORADO...

CITY           SKY/WX    TMP DP  RH WIND       PRES   REMARKS
CRAIG          SUNNY     52  38  58 CALM      30.09F
HAYDEN         MOSUNNY   49  33  54 E12       30.13S
MEEKER         MOSUNNY   50  32  50 CALM      30.11F
RABBIT EARS PA NOT AVBL
STEAMBOAT SPGS FAIR      42  32  69 SE3       30.14F
WALDEN         FAIR      43  28  56 CALM      30.20S
$$

COZ006>008-011-231600-
...WEST CENTRAL VALLEYS...

CITY           SKY/WX    TMP DP  RH WIND       PRES   REMARKS
GRAND JUNCTION SUNNY     58  34  40 SE10      30.07S
MONTROSE       SUNNY     57  31  37 SE5       30.14S
EAGLE          SUNNY     41  33  73 CALM      30.21S
RIFLE          MOSUNNY   48  39  71 CALM      30.13S
DELTA          NOT AVBL
NUCLA          FAIR      55  28  35 CALM      30.17S
$$

COZ017>023-064>068-231600-
...SOUTHWEST COLORADO...

CITY           SKY/WX    TMP DP  RH WIND       PRES   REMARKS
DURANGO        SUNNY     51  26  37 CALM      30.21S
CORTEZ         SUNNY     54  26  34 CALM      30.16F
PAGOSA SPRINGS FAIR      49  19  30 CALM      30.27R
TELLURIDE      MOSUNNY   47  28  47 CALM      30.30F
WOLF CREEK PAS SUNNY     32  18  55 SW10      30.45R WCI  24
$$

COZ009-010-012-014-032>034-037-058>063-231600-
...CENTRAL COLORADO...

CITY           SKY/WX    TMP DP  RH WIND       PRES   REMARKS
ASPEN          MOSUNNY   47  29  49 CALM      30.18F
BUENA VISTA    FAIR      45  33  62 NW3       30.23S
COPPER MTN     NOT AVBL
BERTHOUD PASS  FAIR      30  19  64 W20G38    30.35R WCI  18
COTTONWOOD PAS MOSUNNY   46  36  66 SE5       30.28S
GUNNISON       MOSUNNY   42  31  64 VRB3      30.26F
KREMMLING      MOSUNNY   45  34  65 CALM      30.22S
LEADVILLE      MOSUNNY   35  31  85 CALM      30.24F
MONARCH PASS   MOSUNNY   32  25  74 W17       30.47R WCI  21
SALIDA         FAIR      46  36  67 NW3       30.29S
SUNLIGHT       PTSUNNY   37  25  60 SW8G17    30.34R
WILKERSON PASS PTSUNNY   36  25  64 W6        30.35R
$$

COZ069>075-231600-
...SAN LUIS VALLEY/SANGRE DE CRISTO MOUNTAINS...

CITY           SKY/WX    TMP DP  RH WIND       PRES   REMARKS
ALAMOSA        SUNNY     45  27  49 S3        30.23S
DEL NORTE      FAIR      46  25  43 NW3       30.24F
LA VETA PASS   SUNNY     41  27  56 SW21G32   30.40S
SAGUACHE       NOT AVBL
$$

COZ035-036-038>040-231600-
...NORTHERN COLORADO FRONT RANGE...

CITY           SKY/WX    TMP DP  RH WIND       PRES   REMARKS
DENVER INTL AP MOSUNNY   49  40  71 NW5       30.09S
DMNS CITY PARK NOT AVBL
AURORA         NOT AVBL
FRONT RANGE AP PTSUNNY   50  43  76 W6        30.10S
ERIE MUNI ARPT FAIR      47  40  76 CALM      30.14F
BOULDER MUN AP FAIR      50  41  71 CALM      30.08F
CENTENNIAL     MOSUNNY   51  38  60 CALM      30.09F
BROOMFIELD     PTSUNNY   50  39  66 CALM      30.10F
LOVELAND       MOSUNNY   46  39  76 N3        30.10F
LONGMONT       FAIR      50  41  70 CALM      30.11S
$$

COZ041-046-047-076>085-087-088-231600-
...PIKES PEAK/PALMER DIVIDE AND SOUTHERN FOOTHILLS...

CITY           SKY/WX    TMP DP  RH WIND       PRES   REMARKS
COLO. SPRINGS  MOSUNNY   46  36  68 CALM      30.13F
A. F. ACADEMY  NOT AVBL
SCHRIEVER AFB  NOT AVBL
CHEYENNE MTN   NOT AVBL
ELLICOTT         N/A    N/A N/A N/A S5        30.12F
FALCON         FAIR      49  36  61 SE3       30.15S
FORT CARSON    SUNNY     45  36  70 SW3       30.12F
LIMON          SUNNY     47  37  68 S14       30.13F
MONUMENT HILL  SUNNY     55  32  41 W5        30.14F
CANON CITY     FAIR      46  39  76 SE3       30.12F
WALSENBURG     FAIR      59  30  33 NW5       30.13F
TRINIDAD       SUNNY     53  38  56 S6        30.13F
$$

COZ042>045-048>051-090-091-231600-
...NORTHEAST COLORADO...

CITY           SKY/WX    TMP DP  RH WIND       PRES   REMARKS
GREELEY ARPT   MOSUNNY   45  38  76 CALM      30.11S
AKRON          SUNNY     50  41  71 S13       30.10F
BURLINGTON     SUNNY     50  40  68 S20       30.15F
WRAY           FAIR      52  39  62 S9        30.15F
YUMA           NOT AVBL
STERLING       NOT AVBL
HOLYOKE        FAIR      54  43  66 S13G20    30.15S
FORT MORGAN    FAIR      47  37  67 E3        30.11R
$$

COZ086-089-092>099-231600-
...SOUTHEAST COLORADO...

CITY           SKY/WX    TMP DP  RH WIND       PRES   REMARKS
PUEBLO         SUNNY     47  35  63 SE3       30.12F
LA JUNTA       SUNNY     47  37  68 CALM      30.13F
LAMAR          SUNNY     54  39  57 SE15      30.13F
SPRINGFIELD      N/A     50  39  66 S17       30.14F
$$





USA.gov is the U.S. government's official web portal to all federal, state and local government web resources and services.